This is the latest recevied weather packets stored in our database for station/object IZ1MEU-13. If no packets are shown the sender has not sent any weather packets the latest 10 day(s).
| Time | Temp. | Humidity | Pressure | Rain* | Wind** | Luminosity | Snow |
|---|---|---|---|---|---|---|---|
| 1788642204 | 22.78° C | 42% | 1022.4 hPa | - | - | - | - |
| 1788639797 | 23.33° C | 41% | 1021.6 hPa | - | - | - | - |
| 1788638593 | 23.33° C | 41% | 1021.5 hPa | - | - | - | - |
| 1788637390 | 23.33° C | 41% | 1021.2 hPa | - | - | - | - |
| 1788636185 | 23.33° C | 40% | 1021 hPa | - | - | - | - |
| 1788634982 | 23.89° C | 40% | 1021 hPa | - | - | - | - |
| 1788632574 | 24.44° C | 40% | 1020.6 hPa | - | - | - | - |
| 1788631370 | 25° C | 39% | 1020.4 hPa | - | - | - | - |
| 1788630166 | 25.56° C | 38% | 1020.4 hPa | - | - | - | - |
| 1788628962 | 26.11° C | 36% | 1020.3 hPa | - | - | - | - |
| 1788627758 | 27.22° C | 35% | 1020.2 hPa | - | - | - | - |
| 1788626554 | 28.89° C | 34% | 1020.2 hPa | - | - | - | - |
| 1788625350 | 29.44° C | 35% | 1020.2 hPa | - | - | - | - |
| 1788621737 | 31.11° C | 35% | 1020.2 hPa | - | - | - | - |
| 1788620533 | 31.11° C | 35% | 1020.2 hPa | - | - | - | - |
| 1788619329 | 31.67° C | 36% | 1020.2 hPa | - | - | - | - |
| 1788618125 | 31.67° C | 36% | 1020.4 hPa | - | - | - | - |
| 1788616921 | 30.56° C | 38% | 1020.5 hPa | - | - | - | - |
| 1788616336 | 31.11° C | 37% | 1020.5 hPa | - | - | - | - |
| 1788615280 | 31.11° C | 37% | 1020.6 hPa | - | - | - | - |
| 1788614077 | 30.56° C | 38% | 1020.9 hPa | - | - | - | - |
| 1788612873 | 30.56° C | 39% | 1020.9 hPa | - | - | - | - |
| 1788611670 | 30° C | 39% | 1021 hPa | - | - | - | - |
| 1788610466 | 29.44° C | 41% | 1021.1 hPa | - | - | - | - |
| 1788609263 | 29.44° C | 42% | 1021.3 hPa | - | - | - | - |
* Rain since midnight (hover to see other rain measurements)
** Current wind speed in m/s (hover to see current wind gust speed)